Home > Weather > Lansing > Past weeks

Flag for U.S.A. Weather for the Past 2 Weeks in Lansing, Michigan, U.S.A.

Now
35 °F

Partly sunny.


Feels Like: 25 °F
Forecast: 23 / 35 °F
Wind: 16 mph from West

Location: Capital City Airport

Current Time: Feb 6, 2016 at 4:53:01 PM

Latest Report: Feb 6, 2016 at 3:53 PM


Visibility: 10 mi

Pressure: 30.19 "Hg

Humidity: 50%

Dew point: 18 °F

Location of LansingLocation

Historic Weather in Lansing — Graph

°F

Lansing Temperature Yesterday

Maximum temperature yesterday: 35 °F (at 1:53 PM)
Minimum temperature yesterday: 18 °F (at 12:53 AM)
Average temperature yesterday: 27 °F

High & Low Weather Summary for the Past Weeks

 TemperatureHumidityPressure
High48 °F (Jan 31, 11:53 AM)97% (Jan 25, 10:53 PM)30.36 "Hg (Jan 25, 10:53 PM)
Low17 °F (Jan 24, 12:53 AM)50% (Feb 6, 1:53 PM)29.44 "Hg (Feb 3, 5:01 AM)
Average31 °F78%29.95 "Hg
* Reported Jan 22 2:53 PM — Feb 6 2:53 PM, Lansing, Weather by CustomWeather, © 2016

Note: Actual official high and low records may vary slightly from our data, if they occured in-between our weather recording intervals... More about our weather records

Advertising

Lansing Weather History for the Previous 24 Hours

 ConditionsComfort  
Time TempWeatherWind HumidityBarometerVisibility
2:53 PM
Sat, Feb 6
35 °FPartly sunny.13 mph50%30.19 "Hg10 mi
1:53 PM36 °FSunny.16 mph50%30.19 "Hg10 mi
12:53 PM35 °FSunny.20 mph54%30.22 "Hg10 mi
11:53 AM33 °FPartly sunny.17 mph63%30.26 "Hg10 mi
10:53 AM32 °FSunny.13 mph64%30.27 "Hg10 mi
9:53 AM29 °FOvercast.12 mph79%30.27 "Hg6 mi
8:53 AM28 °FOvercast.9 mph81%30.28 "Hg5 mi
7:53 AM26 °FIce fog.9 mph84%30.29 "Hg6 mi
6:53 AM24 °FOvercast.8 mph84%30.29 "Hg7 mi
5:53 AM23 °FOvercast.8 mph85%30.29 "Hg8 mi
4:53 AM21 °FPassing clouds.5 mph85%30.29 "Hg9 mi
3:53 AM20 °FClear.6 mph85%30.29 "Hg10 mi
2:53 AM21 °FClear.5 mph81%30.29 "Hg10 mi
1:53 AM24 °FPassing clouds.5 mph75%30.30 "Hg10 mi
12:53 AM25 °FPassing clouds.6 mph72%30.31 "Hg10 mi
11:53 PM
Fri, Feb 5
26 °FPartly cloudy.8 mph74%30.31 "Hg10 mi
10:53 PM27 °FOvercast.7 mph75%30.32 "Hg10 mi
9:53 PM27 °FPassing clouds.10 mph75%30.32 "Hg10 mi
8:53 PM28 °FClear.14 mph78%30.33 "Hg10 mi
7:53 PM30 °FIce fog.7 mph85%30.34 "Hg6 mi
6:53 PM30 °FOvercast.5 mph89%30.34 "Hg7 mi
5:53 PM31 °FLight snow. Ice fog.7 mph89%30.33 "Hg1 mi
4:53 PM33 °FMostly cloudy.10 mph72%30.32 "Hg10 mi
Weather by CustomWeather, © 2016

See weather overviewHow to use our weather pages